Погода в Кипарисово

Россия / Приморский край     43°28′33″N   131°55′23″E
темп.,
°C
ветер,
м/с
пор.,
м/с
влажн.,
%
обл.,
%
осадки,
мм/ч
давл.,
гПа
погр.,
м
13 мая, чт
чт1301:00+8ю51392100 0.0 1015664
04:00+7ю4129560 0.0 1014530
07:00+8ю4129570 0.0 1014553
10:00+12ю61077100 0.0 1014661
13:00+14ю7970100 0.0 1013726
16:00+14ю796797 0.0 1012670
19:00+12ююв6127289 0.0 1012554
22:00+9ююв278781 0.3 1013177
14 мая, пт
пт1401:00+8ююв238843 0.0 101466
04:00+7ююв11930 0.0 101414
07:00+8юв118720 0.0 101540
10:00+16ю246091 0.0 1015369
13:00+19ю4550100 0.0 1014545
16:00+18ю4855100 0.0 1012447
19:00+14ю41171100 0.0 1012479
22:00+11ю51477100 0.0 1013543
15 мая, сб
сб1501:00+12ю6158595 0.0 1012695
04:00+10ю41295100 0.0 1010513
07:00+11ю41392100 0.0 1010533
10:00+15ю6975100 0.0 1009580
13:00+18ю686664 0.0 1008540
16:00+15юз3479100 0.0 1008326
19:00+11с4993100 2.2 1010414
22:00+11ссв2695100 3.7 1011306
16 мая, вс
вс1601:00+10с1196100 1.1 101147
04:00+10ссз1194100 1.4 101015
07:00+10с1191100 0.0 101027
10:00+11ссз1286100 0.0 101136
13:00+12ссз1284100 0.3 1010158
16:00+14юз1169100 0.3 1008536
19:00+13ю2281100 0.0 1007135
22:00+10ю1189100 0.0 100718
17 мая, пн
пн1701:00+8ю1192100 0.0 100618
04:00+7в119497 0.0 100610
07:00+9ссв008826 0.0 100726
10:00+18з01510 0.0 1006374
13:00+24зюз13305 0.0 10051371
16:00+23ююз433599 0.0 1004947
19:00+17ю31057100 0.0 1005321
22:00+12юв3869100 0.0 1007177